Regional Weather Roundup
Issued by NWS

Home | Current Version | Previous Version | Text Only | Print | Product List | Glossary Off
Versions: 1 2 3 4 5 6 7 8 9 10 11 12 13 14 15 16 17 18 19 20 21 22 23 24 25 26 27 28 29 30 31 32 33 34 35 36 37 38 39 40 41 42 43 44 45 46 47 48 49 50

000
ASUS43 KLOT 241006
RWRIL

ILLINOIS REGIONAL WEATHER ROUNDUP
NATIONAL WEATHER SERVICE CHICAGO/ROMEOVILLE IL
500 AM CDT FRI OCT 24 2014

NOTE: "FAIR" INDICATES FEW OR NO CLOUDS BELOW 12,000 FEET WITH NO
SIGNIFICANT WEATHER AND/OR OBSTRUCTIONS TO VISIBILITY.

* THESE STATIONS ARE NOT UNDER NWS QUALITY CONTROL. THEY ALSO MAY NOT
  REPORT WEATHER SUCH AS PRECIPITATION OR FOG.

ILZ001-002-007-009-015-016-024-241100-
NORTHWEST ILLINOIS

CITY           SKY/WX    TMP DP  RH WIND       PRES   REMARKS
MOLINE         CLOUDY    48  47  96 CALM      30.06S
STERLING*        N/A     39  36  87 CALM      30.06S VSB 1/4
SAVANNA*       FOG       46  44  95 CALM      30.05S VSB 1/4
$$

ILZ003-004-008-010-011-017-018-241100-
NORTH CENTRAL ILLINOIS

CITY           SKY/WX    TMP DP  RH WIND       PRES   REMARKS
ROCKFORD       FOG       45  44  97 S3        30.07S VSB 3/4
FREEPORT*      CLOUDY    51  49  93 CALM      30.06F FOG
ROCHELLE*      FOG       41  41 100 CALM      30.06S VSB 1/2
DE KALB*       CLOUDY    46  44  93 W3        30.06S
PERU*          CLEAR     46  44  92 CALM      30.07R
$$

ILZ005-006-012>014-019>023-241100-
NORTHEAST ILLINOIS

CITY           SKY/WX    TMP DP  RH WIND       PRES   REMARKS
CHICAGO-OHARE  CLOUDY    53  44  71 SW5       30.05R
CHICAGO-MIDWAY CLOUDY    55  46  71 S3        30.05S
AURORA         CLOUDY    47  43  86 CALM      30.06R
LANSING*       CLOUDY    51  45  79 CALM      30.06S
JOLIET*        PTCLDY    46  45  97 CALM      30.06S
WAUKEGAN       PTCLDY    43  42  97 W3        30.05R
DUPAGE AIRPORT CLOUDY    51  46  83 CALM      30.05R
KANKAKEE*      CLOUDY    50  47  89 S5        30.08R
WHEELING       PTCLDY    49  43  80 CALM      30.07R
MORRIS*        CLOUDY    49  47  95 S3        30.06R
ROMEOVILLE*    CLOUDY    49  46  87 S3        30.06S
NORTHERLY ISL    N/A     54  43  66 S3          N/A
$$

LMZ740>746-241100-
SOUTHERN LAKE MICHIGAN

STATION/POSITION SKY/WX   TEMP    WIND        PRES    VSBY  WAVE
                          AIR SEA DIR/SP/G                  HT/PER
                          (F)     (DEG/KT/KT) (MB)    (MI)  (FT/S)
SOUTHERN BUOY              55 54  240/ 10/ 12 1017.9R         2/ 3
WAUKEGAN HARBOR            51        CALM       N/A
HARRISON CRIB              55     210/ 10/ 11   N/A
BURNHAM HARBOR             54     200/  4/  5   N/A
CALUMET HARBOR             54     220/  3/  5 1016.7R
MICHIGAN CITY              53     190/  7/  8   N/A
$$

ILZ025>027-034>036-040-047-049-050-058-095>099-241100-
WEST-CENTRAL ILLINOIS

CITY           SKY/WX    TMP DP  RH WIND       PRES   REMARKS
QUINCY         FOG       55  54  96 CALM      30.07S VSB 1/4
GALESBURG*     FOG       43  43  98 CALM      30.06F VSB<1/4
MACOMB*        FOG       48  48 100 W7        30.08F VSB 1/4
JACKSONVILLE*  CLOUDY    56  53  87 SW6       30.08S
PITTSFIELD*    MOCLDY    54  52  93 CALM      30.09S
$$

ILZ028>032-037-038-041>044-048-051>054-059>061-241100-
CENTRAL ILLINOIS

CITY           SKY/WX    TMP DP  RH WIND       PRES   REMARKS
PONTIAC        CLEAR     43  42  97 CALM      30.08R FOG
BLOOMINGTON    CLOUDY    52  47  83 SW6       30.08R
DECATUR        PTCLDY    52  46  80 SW5       30.08S
PEORIA         PTCLDY    49  44  83 CALM      30.07R
LACON*         CLEAR     44  42  93 CALM      30.06S
LINCOLN*       CLEAR     47  45  91 CALM      30.06S
SPRINGFIELD    CLOUDY    50  46  86 CALM      30.08R
TAYLORVILLE    CLOUDY    48  45  87 SW6       30.08S
$$

ILZ033-039-045-046-055>057-062-063-241100-
EAST-CENTRAL ILLINOIS

CITY           SKY/WX    TMP DP  RH WIND       PRES   REMARKS
CHAMPAIGN      PTCLDY    47  45  93 SE5       30.08R
DANVILLE*      CLOUDY    48  46  93 S3        30.06S
RANTOUL*       MOCLDY    49  46  92 CALM      30.08R FOG
MATTOON        CLOUDY    52  44  74 S7        30.08R
PARIS*         CLOUDY    49  47  93 SE3       30.10S
$$

ILZ079-100>102-241100-
SOUTHWEST ILLINOIS

CITY           SKY/WX    TMP DP  RH WIND       PRES   REMARKS
ALTON          CLOUDY    51  48  89 CALM      30.10R
BELLEVILLE     CLOUDY    50  50  99 CALM      30.09R
CAHOKIA*       CLOUDY    52  49  89 CALM      30.10R
SPARTA*        CLOUDY    52  47  83 CALM      30.11R
$$

ILZ064>066-069>071-074>076-080>082-084>086-088>090-092>094-241100-
SOUTH-CENTRAL ILLINOIS

CITY           SKY/WX    TMP DP  RH WIND       PRES   REMARKS
CARBONDALE     CLOUDY    49  46  90 SW3       30.11S
CAIRO*         CLOUDY    47  45  90 CALM      30.13S
EFFINGHAM*     CLOUDY    51  43  73 CALM      30.10R
MARION         MOCLDY    48  45  87 S5        30.11S
MT. VERNON     MOCLDY    48  45  87 CALM      30.11R
CENTRALIA*     CLOUDY    52  46  80 CALM      30.10R
SALEM*         CLOUDY    53  50  90 CALM      30.10S
METROPOLIS*    FOG       42  42 100 CALM      30.13R VSB 1/4
$$

ILZ067-068-072-073-078-083-087-091-241100-
SOUTHEAST ILLINOIS

CITY           SKY/WX    TMP DP  RH WIND       PRES   REMARKS
LAWRENCEVILLE  CLOUDY    50  47  89 CALM      30.11R
FLORA*         PTCLDY    51  47  87 CALM      30.11R
FAIRFIELD*     CLOUDY    50  46  87 S3        30.10R
HARRISBURG*    CLOUDY    47  47 100 CALM      30.13R
ROBINSON*      CLOUDY    52  48  84 CALM      30.11S
CARMI*         CLOUDY    50  49  97 CALM      30.11S
$$

ABBREVIATIONS USED IN REMARKS
   TC - TEMPERATURE IN CELSIUS
  WCI - WIND CHILL INDEX
   HX - HEAT INDEX
  VSB - VISIBILITY
$$




USA.gov is the U.S. government's official web portal to all federal, state and local government web resources and services.